sat.trackr.live / text

‹ back to catalog

STARLINK-32572

NORAD 61952 · 2024-209P

PAYLOAD ACTIVE UNKNOWN

§ Identity

Operator
Country
US
Launch date
2024-11-14
Launch site
AFWTR
Launch vehicle
Mass (kg)
RCS (m²)

Purposes: comms

External: N2YO · Heavens-Above · Gunter

§ Orbital elements

Epoch: 2026-05-25T00:04:03.364608Z

Period
94.10 min
Inclination
53.1593°
Eccentricity
0.0001317
Mean motion
15.30211173 rev/d
Perigee alt
474.3 km
Apogee alt
476.1 km
Semi-major
6,853.3 km
B*
5.7174e-4
RAAN
147.7344°
Arg perigee
89.5509°
Mean anomaly
270.5643°
Rev number
8,658

§ Raw data

STARLINK-325721 61952U 24209P   26145.00281672  .00016618  00000+0  57174-3 0  99922 61952  53.1593 147.7344 0001317  89.5509 270.5643 15.30211173 86587

JSON: /api/v1/satellites/61952 · /tle

For live sub-satellite position, see the globe view (requires WebGL).

§ Visibility from observer

Set your observer location to see the next 7 days of passes ≥ 10°. The values pass through the URL so the page stays shareable.

No JS? Fill the form by hand. The geolocation button needs JavaScript.